This demonstration page uses our WeatherBlox Daily Observations layout. Learn more.

Left ArrowRight Arrow

Hourly Observations for May 20, 2020

Temp ( °F °C ) Dew Point ( °F °C ) Humidity (%) Winds ( mph kmh ) Pressure ( in mb ) Visibility ( mi km ) Precip ( " mm )
12:54 am 00:54 Partly Cloudy 58 14.4 51 10.6 78 78 E 9 15 30.01 1016 10 16.0934 0 0
1:03 am 01:03 Mostly Cloudy 57 13.9 51 10.6 81 81 E 8 13 30.01 1016 10 16.0934 0 0
1:54 am 01:54 Cloudy 58 14.4 52 11.1 81 81 E 6 9 30.02 1017 10 16.0934 0 0
2:54 am 02:54 Cloudy 58 14.4 51 10.6 78 78 ESE 6 9 30.01 1016 10 16.0934 0 0
3:54 am 03:54 Cloudy 57 13.9 51 10.6 81 81 E 5 7 30.01 1016 10 16.0934 0 0
4:17 am 04:17 Mostly Clear 56 13.3 50 10 81 81 E 5 7 30.03 1017 10 16.0934 0 0
4:54 am 04:54 Clear 53 11.7 49 9.4 86 86 E 6 9 30.01 1016 10 16.0934 0 0
5:54 am 05:54 Clear 53 11.7 49 9.4 86 86 Calm 30.02 1017 8 12.87472 0 0
6:34 am 06:34 Mostly Cloudy 53 11.7 50 10 89 89 Calm 30.04 1017 8 12.87472 0 0
6:54 am 06:54 Cloudy 54 12.2 51 10.6 90 90 Calm 30.03 1017 8 12.87472 0 0
7:29 am 07:29 Cloudy 57 13.9 53 11.7 87 87 SE 3 6 30.03 1017 9 14.48406 0 0
7:54 am 07:54 Cloudy 59 15 52 11.1 78 78 SE 8 13 30.03 1017 10 16.0934 0 0
8:02 am 08:02 Cloudy 60 15.6 53 11.7 78 78 E 6 9 30.03 1017 10 16.0934 0 0
8:28 am 08:28 Cloudy 59 15 53 11.7 81 81 ESE 5 7 30.04 1017 10 16.0934 0 0
8:54 am 08:54 Cloudy 60 15.6 53 11.7 78 78 E 8 13 30.03 1017 10 16.0934 0 0
9:13 am 09:13 Cloudy 61 16.1 53 11.7 75 75 ESE 7 11 30.03 1017 10 16.0934 0 0
9:54 am 09:54 Cloudy 62 16.7 53 11.7 73 73 E 10 17 30.02 1017 10 16.0934 0 0
10:10 am 10:10 Cloudy 61 16.1 53 11.7 75 75 E 10 17 30.01 1016 10 16.0934 0 0
10:27 am 10:27 Cloudy 62 16.7 54 12.2 75 75 E 10 17 30.01 1016 10 16.0934 0 0
10:54 am 10:54 Cloudy 62 16.7 54 12.2 75 75 ESE 12 19 30.02 1017 10 16.0934 0 0
11:54 am 11:54 Cloudy 63 17.2 55 12.8 76 76 E 12 19 30.02 1017 8 12.87472 0 0
12:54 pm 12:54 Cloudy 65 18.3 55 12.8 70 70 ESE 10 17 30.01 1016 9 14.48406 0 0
1:01 pm 13:01 Cloudy 65 18.3 55 12.8 70 70 ESE 10 17 30 1016 8 12.87472 0 0
1:54 pm 13:54 Cloudy 66 18.9 55 12.8 68 68 SE 10 17 30.01 1016 10 16.0934 0 0
2:54 pm 14:54 Cloudy 69 20.6 56 13.3 63 63 SE 13 20 29.98 1015 10 16.0934 0 0
3:07 pm 15:07 Cloudy 68 20 56 13.3 65 65 SE 10 17 29.96 1014 10 16.0934 0 0
3:54 pm 15:54 Cloudy 70 21.1 56 13.3 61 61 SSE 13 20 29.96 1015 10 16.0934 0 0
4:54 pm 16:54 Cloudy 70 21.1 55 12.8 59 59 SE 15 24 29.95 1014 10 16.0934 0 0
5:54 pm 17:54 Cloudy 70 21.1 55 12.8 59 59 ESE 13 20 29.93 1014 10 16.0934 0 0
6:54 pm 18:54 Cloudy 69 20.6 55 12.8 61 61 SE 15 24 29.92 1013 10 16.0934 0 0
7:54 pm 19:54 Cloudy 68 20 55 12.8 63 63 SE 12 19 29.93 1014 10 16.0934 0 0
8:54 pm 20:54 Cloudy 67 19.4 55 12.8 66 66 SE 13 20 29.93 1014 10 16.0934 0 0
9:54 pm 21:54 Cloudy 66 18.9 56 13.3 70 70 ESE 12 19 29.93 1014 10 16.0934 0 0
10:54 pm 22:54 Cloudy 65 18.3 56 13.3 73 73 ESE 12 19 29.93 1014 10 16.0934 0 0
11:54 pm 23:54 Cloudy 64 17.8 57 13.9 78 78 ESE 15 24 29.92 1013 10 16.0934 0 0

Powered by AerisWeather